Regional Weather Roundup
Issued by NWS Lake Charles, LA

Home | Current Version | Previous Version | Text Only | Print | Product List | Glossary On
Versions: 1 2 3 4 5 6 7 8 9 10 11 12 13 14 15 16 17 18 19 20 21 22 23 24 25 26 27
000
ASUS44 KLCH 200510
RWRLCH
REGIONAL WEATHER ROUNDUP
NATIONAL WEATHER SERVICE LAKE CHARLES LA
1100 PM CST FRI JAN 19 2018

Note: "fair" indicates few or no clouds below 12,000 feet with no
significant weather and/or obstructions to visibility.


ACROSS SOUTHEAST TEXAS

CITY           SKY/WX    TMP DP  RH WIND       PRES   REMARKS
BEAUMONT       CLOUDY    48  44  86 E9        30.18F
BEAUMONT CITY  CLOUDY    50  44  80 E6        30.18F
ORANGE         MOCLDY    48  43  83 E6        30.20F
JASPER         CLOUDY    50  40  68 CALM      30.21S
$$

ACROSS CENTRAL LOUISIANA

CITY           SKY/WX    TMP DP  RH WIND       PRES   REMARKS
LEESVILLE      FAIR      45  33  61 SE7       30.19S
FULLERTON      FAIR      46  31  55 SE3       30.17F
ALEXANDRIA INT FAIR      40  29  64 SE7       30.20S
ESLER FIELD    FAIR      39  29  67 CALM      30.20F
DERIDDER       MOCLDY    45  34  64 CALM      30.22S
OAKDALE        FAIR      38  34  85 CALM      30.21F
OPELOUSAS      FAIR      47  30  52 SE9       30.22S
$$

ACROSS SOUTHWEST AND SOUTH CENTRAL LOUISIANA

CITY           SKY/WX    TMP DP  RH WIND       PRES   REMARKS
SULPHUR        MOCLDY    48  38  68 E6        30.20F
LAKE CHARLES   FAIR      47  37  68 SE8       30.19F
CHENNAULT INT  MOCLDY    46  38  75 E5        30.20S
CAMERON PHI    MOCLDY    48  46  93 E8        30.19F
DEQUINCY       CLOUDY    45  38  77 CALM      30.19F
JENNINGS       FAIR      47  38  69 SE9       30.21S
LAFAYETTE      FAIR      48  36  63 VRB3      30.22F
NEW IBERIA     FAIR      48  38  68 SE9       30.23F
ABBEVILLE      FAIR      47  41  80 E5        30.22S
PATTERSON      FAIR      45  38  76 NE3       30.25F
SALT POINT       N/A     48  41  76 E7        30.21F
$$

SELECTED SITES ACROSS THE REGION

CITY           SKY/WX    TMP DP  RH WIND       PRES   REMARKS
HOUSTON BUSH   FOG       51  51 100 E8        30.15S VSB 1/4
HOUSTON HOBBY  LGT RAIN  51  51 100 E7        30.14F FOG
GALVESTON      CLOUDY    57  56  96 E9        30.15F
COLLEGE STAT   CLOUDY    56  55  97 SE15      30.12R FOG
CONROE         LGT RAIN  51  51 100 SE6       30.15F FOG
HUNTSVILLE     LGT RAIN  53  51  93 VRB5      30.13S
LUFKIN         CLOUDY    53  47  79 SE8       30.16S
SHREVEPORT     CLOUDY    48  26  42 SE9       30.16F
MONROE         CLOUDY    46  26  45 CALM      30.22S
NATCHEZ MS     CLOUDY    48  26  42 S7        30.24F
BATON ROUGE    FAIR      39  31  72 E6        30.25F
N.O. INTL ARPT MOCLDY    47  31  53 E5        30.27F
SLIDELL        FAIR      38  33  82 CALM      30.28S
$$

MARINE REPORTS

STATION/POSITION TIME  SKY/WX   TEMP    WIND        PRES    VSBY
                                AIR SEA DIR/SP/G
                 (UTC)          (F)     (DEG/KT/KT) (MB)    (MI)
BUOY 30 S HIGH I 0350            55 53  100/  8/ 10 1021.3
WVE H/P(F/S)=  4/ 6

SEA RIM ST PARK  0500            50     100/  7/  9 1022.0F
PORT ARTHUR      0448            46      80/  4/  5 1022.0F
SABINE PASS N    0448            49 48  100/  7/ 12 1023.3F
TEXAS POINT      NOT AVBL
CALCASIEU PASS   0448            49 46  130/ 10/ 13 1020.9F
LK CHARLES BEACH 0448            50 49              1021.9F
MARSH ISLAND     0400            47                   N/A
FRESH WATER LOCK 0448            47 42   90/ 10/ 13 1022.7F
AMERADA PASS     0448            47 44   90/ 10/ 14 1023.0F
$$




USA.gov is the U.S. government's official web portal to all federal, state and local government web resources and services.